Time,TemperatureF,DewpointF,PressureIn,WindDirection,WindDirectionDegrees,WindSpeedMPH,WindSpeedGustMPH,Humidity,HourlyPrecipIn,Conditions,Clouds,dailyrainin,SoftwareType,DateUTC
2013-01-19 00:00:00,29.7,9.4,30.42,WSW,245,7.0,10.0,42,0.00,,,0.00,Wunderground v.1.15,2013-01-19 05:00:00,
2013-01-19 00:03:00,29.9,9.6,30.43,WSW,246,7.0,10.0,42,0.00,,,0.00,Wunderground v.1.15,2013-01-19 05:03:00,
2013-01-19 00:05:00,29.9,10.1,30.42,SW,218,7.0,10.0,43,0.00,,,0.00,Wunderground v.1.15,2013-01-19 05:05:00,
2013-01-19 00:11:00,30.1,9.2,30.42,SW,236,6.0,12.0,41,0.00,,,0.00,Wunderground v.1.15,2013-01-19 05:11:00,
2013-01-19 00:16:00,30.5,9.0,30.42,WSW,257,7.0,12.0,40,0.00,,,0.00,Wunderground v.1.15,2013-01-19 05:16:00,
2013-01-19 00:23:00,30.8,8.7,30.42,WSW,257,7.0,9.0,39,0.00,,,0.00,Wunderground v.1.15,2013-01-19 05:23:00,
2013-01-19 00:28:00,31.1,9.0,30.42,West,267,7.0,9.0,39,0.00,,,0.00,Wunderground v.1.15,2013-01-19 05:28:00,
2013-01-19 00:34:00,31.2,8.5,30.42,NW,307,6.0,9.0,38,0.00,,,0.00,Wunderground v.1.15,2013-01-19 05:34:00,
2013-01-19 00:41:00,31.4,8.1,30.41,WSW,249,7.0,9.0,37,0.00,,,0.00,Wunderground v.1.15,2013-01-19 05:41:00,
2013-01-19 00:47:00,31.6,8.3,30.41,WSW,239,7.0,12.0,37,0.00,,,0.00,Wunderground v.1.15,2013-01-19 05:47:00,
2013-01-19 00:52:00,31.8,8.4,30.41,SW,229,7.0,11.0,37,0.00,,,0.00,Wunderground v.1.15,2013-01-19 05:52:00,
2013-01-19 00:58:00,31.8,8.4,30.42,SE,129,6.0,6.0,37,0.00,,,0.00,Wunderground v.1.15,2013-01-19 05:58:00,
2013-01-19 01:04:00,32.0,8.6,30.42,WSW,252,6.0,9.0,37,0.00,,,0.00,Wunderground v.1.15,2013-01-19 06:04:00,
2013-01-19 01:10:00,32.0,9.2,30.42,SW,236,6.0,9.0,38,0.00,,,0.00,Wunderground v.1.15,2013-01-19 06:10:00,
2013-01-19 01:17:00,31.8,9.6,30.41,WSW,257,5.0,9.0,39,0.00,,,0.00,Wunderground v.1.15,2013-01-19 06:17:00,
2013-01-19 01:22:00,31.8,9.6,30.41,SW,226,5.0,10.0,39,0.00,,,0.00,Wunderground v.1.15,2013-01-19 06:22:00,
2013-01-19 01:28:00,31.6,9.4,30.41,SSW,213,4.0,9.0,39,0.00,,,0.00,Wunderground v.1.15,2013-01-19 06:28:00,
2013-01-19 01:35:00,31.6,9.4,30.41,WSW,246,4.0,11.0,39,0.00,,,0.00,Wunderground v.1.15,2013-01-19 06:35:00,
2013-01-19 01:41:00,31.7,9.5,30.41,WNW,292,5.0,10.0,39,0.00,,,0.00,Wunderground v.1.15,2013-01-19 06:41:00,
2013-01-19 01:46:00,31.8,9.6,30.40,WSW,255,6.0,11.0,39,0.00,,,0.00,Wunderground v.1.15,2013-01-19 06:46:00,
2013-01-19 01:52:00,31.9,9.7,30.40,WSW,256,6.0,9.0,39,0.00,,,0.00,Wunderground v.1.15,2013-01-19 06:52:00,
2013-01-19 01:58:00,31.8,9.6,30.40,WSW,240,6.0,6.0,39,0.00,,,0.00,Wunderground v.1.15,2013-01-19 06:58:00,
2013-01-19 02:04:00,32.0,9.2,30.40,South,186,5.0,11.0,38,0.00,,,0.00,Wunderground v.1.15,2013-01-19 07:04:00,
2013-01-19 02:10:00,32.0,9.8,30.40,WSW,248,6.0,9.0,39,0.00,,,0.00,Wunderground v.1.15,2013-01-19 07:10:00,
2013-01-19 02:17:00,32.4,9.0,30.40,SW,222,5.0,9.0,37,0.00,,,0.00,Wunderground v.1.15,2013-01-19 07:17:00,
2013-01-19 02:22:00,32.7,9.3,30.40,WSW,248,6.0,14.0,37,0.00,,,0.00,Wunderground v.1.15,2013-01-19 07:22:00,
2013-01-19 02:28:00,33.0,9.5,30.41,SSW,199,6.0,6.0,37,0.00,,,0.00,Wunderground v.1.15,2013-01-19 07:28:00,
2013-01-19 02:34:00,32.8,9.3,30.40,SW,218,5.0,9.0,37,0.00,,,0.00,Wunderground v.1.15,2013-01-19 07:34:00,
2013-01-19 02:40:00,32.9,8.8,30.40,SW,221,6.0,10.0,36,0.00,,,0.00,Wunderground v.1.15,2013-01-19 07:40:00,
2013-01-19 02:46:00,33.2,9.1,30.40,SW,218,7.0,10.0,36,0.00,,,0.00,Wunderground v.1.15,2013-01-19 07:46:00,
2013-01-19 02:52:00,33.4,9.3,30.40,SE,143,6.0,9.0,36,0.00,,,0.00,Wunderground v.1.15,2013-01-19 07:52:00,
2013-01-19 02:58:00,33.7,9.5,30.40,South,187,6.0,9.0,36,0.00,,,0.00,Wunderground v.1.15,2013-01-19 07:58:00,
2013-01-19 03:04:00,33.8,9.6,30.40,WSW,245,7.0,9.0,36,0.00,,,0.00,Wunderground v.1.15,2013-01-19 08:04:00,
2013-01-19 03:10:00,33.6,9.4,30.40,WSW,242,7.0,13.0,36,0.00,,,0.00,Wunderground v.1.15,2013-01-19 08:10:00,
2013-01-19 03:16:00,33.6,10.1,30.40,West,269,7.0,13.0,37,0.00,,,0.00,Wunderground v.1.15,2013-01-19 08:16:00,
2013-01-19 03:22:00,33.5,10.0,30.39,SW,233,8.0,12.0,37,0.00,,,0.00,Wunderground v.1.15,2013-01-19 08:22:00,
2013-01-19 03:28:00,33.9,10.9,30.39,NW,316,8.0,8.0,38,0.00,,,0.00,Wunderground v.1.15,2013-01-19 08:28:00,
2013-01-19 03:34:00,34.1,11.1,30.39,WSW,249,10.0,11.0,38,0.00,,,0.00,Wunderground v.1.15,2013-01-19 08:34:00,
2013-01-19 03:40:00,34.4,11.4,30.38,WSW,238,10.0,16.0,38,0.00,,,0.01,Wunderground v.1.15,2013-01-19 08:40:00,
2013-01-19 03:46:00,34.7,11.6,30.38,West,267,10.0,16.0,38,0.00,,,0.01,Wunderground v.1.15,2013-01-19 08:46:00,
2013-01-19 03:52:00,34.8,11.7,30.38,South,178,8.0,11.0,38,0.00,,,0.01,Wunderground v.1.15,2013-01-19 08:52:00,
2013-01-19 03:58:00,34.8,11.7,30.38,SW,229,7.0,7.0,38,0.00,,,0.01,Wunderground v.1.15,2013-01-19 08:58:00,
2013-01-19 04:04:00,35.0,11.9,30.39,WNW,298,8.0,15.0,38,0.00,,,0.01,Wunderground v.1.15,2013-01-19 09:04:00,
2013-01-19 04:10:00,35.1,12.6,30.38,WSW,243,8.0,16.0,39,0.00,,,0.01,Wunderground v.1.15,2013-01-19 09:10:00,
2013-01-19 04:16:00,35.3,12.2,30.38,South,191,10.0,16.0,38,0.00,,,0.01,Wunderground v.1.15,2013-01-19 09:16:00,
2013-01-19 04:22:00,35.3,12.8,30.37,SSW,211,10.0,14.0,39,0.00,,,0.01,Wunderground v.1.15,2013-01-19 09:22:00,
2013-01-19 04:28:00,35.7,13.7,30.37,SW,233,10.0,10.0,40,0.00,,,0.01,Wunderground v.1.15,2013-01-19 09:28:00,
2013-01-19 04:34:00,35.7,13.7,30.37,WNW,283,11.0,11.0,40,0.00,,,0.01,Wunderground v.1.15,2013-01-19 09:34:00,
2013-01-19 04:40:00,35.9,14.5,30.37,West,259,11.0,12.0,41,0.00,,,0.01,Wunderground v.1.15,2013-01-19 09:40:00,
2013-01-19 04:46:00,36.2,14.7,30.36,WSW,243,12.0,14.0,41,0.00,,,0.01,Wunderground v.1.15,2013-01-19 09:46:00,
2013-01-19 04:52:00,36.0,14.5,30.36,NW,314,12.0,22.0,41,0.00,,,0.01,Wunderground v.1.15,2013-01-19 09:52:00,
2013-01-19 04:58:00,36.0,15.1,30.36,WNW,282,11.0,12.0,42,0.00,,,0.01,Wunderground v.1.15,2013-01-19 09:58:00,
2013-01-19 05:04:00,35.8,15.5,30.36,WSW,249,11.0,14.0,43,0.00,,,0.01,Wunderground v.1.15,2013-01-19 10:04:00,
2013-01-19 05:10:00,35.9,15.5,30.36,West,262,10.0,11.0,43,0.00,,,0.01,Wunderground v.1.15,2013-01-19 10:10:00,
2013-01-19 05:16:00,35.9,16.1,30.36,WSW,250,11.0,16.0,44,0.00,,,0.01,Wunderground v.1.15,2013-01-19 10:16:00,
2013-01-19 05:22:00,35.9,16.1,30.36,WSW,250,12.0,14.0,44,0.00,,,0.01,Wunderground v.1.15,2013-01-19 10:22:00,
2013-01-19 05:27:00,35.9,16.1,30.36,SW,215,12.0,14.0,44,0.00,,,0.01,Wunderground v.1.15,2013-01-19 10:27:00,
2013-01-19 05:34:00,35.7,15.9,30.36,West,260,12.0,17.0,44,0.00,,,0.01,Wunderground v.1.15,2013-01-19 10:34:00,
2013-01-19 05:40:00,35.6,16.3,30.36,West,272,11.0,13.0,45,0.00,,,0.01,Wunderground v.1.15,2013-01-19 10:40:00,
2013-01-19 05:46:00,35.8,16.0,30.36,NW,305,11.0,17.0,44,0.00,,,0.01,Wunderground v.1.15,2013-01-19 10:46:00,
2013-01-19 05:52:00,35.7,16.4,30.36,WNW,283,11.0,17.0,45,0.00,,,0.01,Wunderground v.1.15,2013-01-19 10:52:00,
2013-01-19 05:58:00,36.0,16.2,30.36,WSW,257,11.0,13.0,44,0.00,,,0.01,Wunderground v.1.15,2013-01-19 10:58:00,
2013-01-19 06:04:00,35.9,16.1,30.36,West,259,11.0,15.0,44,0.00,,,0.01,Wunderground v.1.15,2013-01-19 11:04:00,
2013-01-19 06:10:00,36.0,16.2,30.36,WSW,242,11.0,12.0,44,0.00,,,0.01,Wunderground v.1.15,2013-01-19 11:10:00,
2013-01-19 07:48:00,38.4,15.0,30.35,NW,312,9.0,9.0,38,0.00,,,0.01,Wunderground v.1.15,2013-01-19 12:48:00,
2013-01-19 07:49:00,38.4,15.0,30.35,SW,214,8.0,14.0,38,0.00,,,0.01,Wunderground v.1.15,2013-01-19 12:49:00,
2013-01-19 07:50:00,38.4,15.0,30.35,WSW,256,8.0,16.0,38,0.00,,,0.01,Wunderground v.1.15,2013-01-19 12:50:00,
2013-01-19 07:52:00,38.5,15.1,30.35,WSW,246,8.0,16.0,38,0.00,,,0.01,Wunderground v.1.15,2013-01-19 12:52:00,
2013-01-19 07:58:00,39.0,14.9,30.35,WSW,240,10.0,10.0,37,0.00,,,0.01,Wunderground v.1.15,2013-01-19 12:58:00,
2013-01-19 08:04:00,39.0,14.9,30.35,West,270,11.0,11.0,37,0.00,,,0.01,Wunderground v.1.15,2013-01-19 13:04:00,
2013-01-19 08:10:00,38.8,15.3,30.35,NNE,31,10.0,13.0,38,0.00,,,0.01,Wunderground v.1.15,2013-01-19 13:10:00,
2013-01-19 08:16:00,39.0,15.5,30.35,SW,222,8.0,13.0,38,0.00,,,0.01,Wunderground v.1.15,2013-01-19 13:16:00,
2013-01-19 08:22:00,38.8,15.9,30.35,West,259,9.0,13.0,39,0.00,,,0.01,Wunderground v.1.15,2013-01-19 13:22:00,
2013-01-19 08:28:00,38.8,15.9,30.35,WSW,256,9.0,12.0,39,0.00,,,0.01,Wunderground v.1.15,2013-01-19 13:28:00,
2013-01-19 08:34:00,38.6,16.3,30.35,WSW,240,9.0,17.0,40,0.00,,,0.01,Wunderground v.1.15,2013-01-19 13:34:00,
2013-01-19 08:40:00,38.7,16.4,30.35,WSW,256,10.0,10.0,40,0.00,,,0.01,Wunderground v.1.15,2013-01-19 13:40:00,
2013-01-19 08:46:00,39.0,16.1,30.35,WSW,256,10.0,11.0,39,0.00,,,0.01,Wunderground v.1.15,2013-01-19 13:46:00,
2013-01-19 08:52:00,39.4,15.9,30.35,WSW,249,10.0,16.0,38,0.00,,,0.01,Wunderground v.1.15,2013-01-19 13:52:00,
2013-01-19 08:58:00,39.7,16.1,30.35,WSW,255,12.0,13.0,38,0.00,,,0.01,Wunderground v.1.15,2013-01-19 13:58:00,
2013-01-19 09:04:00,40.1,16.5,30.35,WSW,238,11.0,13.0,38,0.00,,,0.01,Wunderground v.1.15,2013-01-19 14:04:00,
2013-01-19 09:10:00,40.2,16.0,30.35,West,259,11.0,19.0,37,0.00,,,0.01,Wunderground v.1.15,2013-01-19 14:10:00,
2013-01-19 09:16:00,40.3,16.1,30.35,SW,229,10.0,19.0,37,0.00,,,0.01,Wunderground v.1.15,2013-01-19 14:16:00,
2013-01-19 09:22:00,40.3,16.1,30.36,NW,318,12.0,17.0,37,0.00,,,0.01,Wunderground v.1.15,2013-01-19 14:22:00,
2013-01-19 09:28:00,40.4,16.8,30.36,WNW,284,13.0,13.0,38,0.00,,,0.01,Wunderground v.1.15,2013-01-19 14:28:00,
2013-01-19 09:34:00,40.5,16.2,30.35,WSW,238,11.0,13.0,37,0.00,,,0.01,Wunderground v.1.15,2013-01-19 14:34:00,
2013-01-19 09:40:00,40.6,15.7,30.35,SW,231,11.0,11.0,36,0.00,,,0.01,Wunderground v.1.15,2013-01-19 14:40:00,
2013-01-19 09:46:00,40.8,15.9,30.35,WSW,251,10.0,17.0,36,0.00,,,0.01,Wunderground v.1.15,2013-01-19 14:46:00,
2013-01-19 09:52:00,40.7,16.4,30.35,SW,235,10.0,19.0,37,0.00,,,0.01,Wunderground v.1.15,2013-01-19 14:52:00,
2013-01-19 09:58:00,40.8,15.9,30.36,WSW,252,13.0,14.0,36,0.00,,,0.01,Wunderground v.1.15,2013-01-19 14:58:00,
2013-01-19 10:04:00,40.7,16.4,30.35,WSW,253,13.0,14.0,37,0.00,,,0.01,Wunderground v.1.15,2013-01-19 15:04:00,
2013-01-19 10:10:00,40.7,16.4,30.35,SW,230,13.0,18.0,37,0.00,,,0.01,Wunderground v.1.15,2013-01-19 15:10:00,
2013-01-19 10:19:00,40.9,16.6,30.36,West,259,12.0,15.0,37,0.00,,,0.01,Wunderground v.1.15,2013-01-19 15:19:00,
2013-01-19 10:24:00,41.0,16.7,30.35,SW,233,12.0,15.0,37,0.00,,,0.01,Wunderground v.1.15,2013-01-19 15:24:00,
2013-01-19 10:30:00,40.8,17.1,30.34,SW,232,12.0,18.0,38,0.00,,,0.01,Wunderground v.1.15,2013-01-19 15:30:00,
2013-01-19 10:36:00,40.8,16.5,30.35,WSW,239,12.0,21.0,37,0.00,,,0.01,Wunderground v.1.15,2013-01-19 15:36:00,
2013-01-19 10:42:00,40.7,16.4,30.34,WSW,240,12.0,17.0,37,0.00,,,0.01,Wunderground v.1.15,2013-01-19 15:42:00,
2013-01-19 10:48:00,40.8,16.5,30.34,West,268,13.0,14.0,37,0.00,,,0.01,Wunderground v.1.15,2013-01-19 15:48:00,
2013-01-19 10:54:00,41.0,16.0,30.34,WNW,293,12.0,17.0,36,0.00,,,0.01,Wunderground v.1.15,2013-01-19 15:54:00,
2013-01-19 11:00:00,41.2,16.2,30.34,SSW,195,10.0,11.0,36,0.00,,,0.01,Wunderground v.1.15,2013-01-19 16:00:00,
2013-01-19 11:06:00,41.2,16.2,30.33,ESE,112,10.0,11.0,36,0.00,,,0.01,Wunderground v.1.15,2013-01-19 16:06:00,
2013-01-19 11:12:00,41.5,15.8,30.33,WSW,248,10.0,14.0,35,0.00,,,0.01,Wunderground v.1.15,2013-01-19 16:12:00,
2013-01-19 11:18:00,41.6,15.9,30.32,West,259,10.0,10.0,35,0.00,,,0.01,Wunderground v.1.15,2013-01-19 16:18:00,
2013-01-19 11:24:00,41.9,15.5,30.32,West,280,9.0,10.0,34,0.00,,,0.01,Wunderground v.1.15,2013-01-19 16:24:00,
2013-01-19 11:30:00,42.0,14.9,30.31,West,271,9.0,11.0,33,0.00,,,0.01,Wunderground v.1.15,2013-01-19 16:30:00,
2013-01-19 11:46:00,42.3,15.2,30.30,West,273,9.0,14.0,33,0.00,,,0.01,Wunderground v.1.15,2013-01-19 16:46:00,
2013-01-19 11:52:00,42.4,14.6,30.29,NW,314,8.0,11.0,32,0.00,,,0.01,Wunderground v.1.15,2013-01-19 16:52:00,
2013-01-19 11:58:00,42.7,14.8,30.29,WSW,254,7.0,7.0,32,0.00,,,0.01,Wunderground v.1.15,2013-01-19 16:58:00,
2013-01-19 12:04:00,42.9,15.7,30.28,West,267,7.0,9.0,33,0.00,,,0.01,Wunderground v.1.15,2013-01-19 17:04:00,
2013-01-19 12:10:00,43.0,14.4,30.28,West,260,8.0,11.0,31,0.00,,,0.01,Wunderground v.1.15,2013-01-19 17:10:00,
2013-01-19 12:16:00,42.5,14.7,30.27,NW,326,9.0,11.0,32,0.00,,,0.01,Wunderground v.1.15,2013-01-19 17:16:00,
2013-01-19 12:21:00,42.6,14.0,30.27,WSW,245,9.0,18.0,31,0.00,,,0.01,Wunderground v.1.15,2013-01-19 17:21:00,
2013-01-19 12:26:00,43.4,14.7,30.26,NW,325,9.0,18.0,31,0.00,,,0.01,Wunderground v.1.15,2013-01-19 17:26:00,
2013-01-19 12:32:00,44.0,13.7,30.26,SSW,194,6.0,9.0,29,0.00,,,0.01,Wunderground v.1.15,2013-01-19 17:32:00,
2013-01-19 12:38:00,44.1,13.8,30.25,SW,235,6.0,9.0,29,0.00,,,0.01,Wunderground v.1.15,2013-01-19 17:38:00,
2013-01-19 12:44:00,44.6,14.3,30.25,WSW,255,6.0,9.0,29,0.00,,,0.01,Wunderground v.1.15,2013-01-19 17:44:00,
2013-01-19 12:49:00,44.4,14.1,30.25,WSW,248,6.0,9.0,29,0.00,,,0.01,Wunderground v.1.15,2013-01-19 17:49:00,
2013-01-19 12:54:00,44.5,12.5,30.25,SSE,152,5.0,9.0,27,0.00,,,0.01,Wunderground v.1.15,2013-01-19 17:54:00,
2013-01-19 13:00:00,45.1,13.9,30.24,SW,235,6.0,8.0,28,0.00,,,0.01,Wunderground v.1.15,2013-01-19 18:00:00,
2013-01-19 13:08:00,45.7,13.6,30.24,SSE,148,6.0,9.0,27,0.00,,,0.01,Wunderground v.1.15,2013-01-19 18:08:00,
2013-01-19 13:14:00,45.9,13.7,30.23,WNW,295,4.0,9.0,27,0.00,,,0.01,Wunderground v.1.15,2013-01-19 18:14:00,
2013-01-19 13:20:00,45.9,12.9,30.23,NE,36,4.0,9.0,26,0.00,,,0.01,Wunderground v.1.15,2013-01-19 18:20:00,
2013-01-19 13:28:00,46.0,13.0,30.23,NW,317,5.0,5.0,26,0.00,,,0.01,Wunderground v.1.15,2013-01-19 18:28:00,
2013-01-19 13:34:00,46.3,12.3,30.22,West,259,4.0,9.0,25,0.00,,,0.01,Wunderground v.1.15,2013-01-19 18:34:00,
2013-01-19 13:40:00,46.2,14.0,30.21,SSW,195,4.0,9.0,27,0.00,,,0.01,Wunderground v.1.15,2013-01-19 18:40:00,
2013-01-19 13:46:00,46.6,12.6,30.21,West,264,4.0,9.0,25,0.00,,,0.01,Wunderground v.1.15,2013-01-19 18:46:00,
2013-01-19 13:52:00,46.4,12.4,30.21,SW,233,4.0,9.0,25,0.00,,,0.01,Wunderground v.1.15,2013-01-19 18:52:00,
2013-01-19 14:00:00,46.7,11.8,30.20,West,263,4.0,9.0,24,0.00,,,0.01,Wunderground v.1.15,2013-01-19 19:00:00,
2013-01-19 14:06:00,46.5,11.6,30.20,ESE,117,5.0,9.0,24,0.00,,,0.01,Wunderground v.1.15,2013-01-19 19:06:00,
2013-01-19 14:12:00,46.9,12.9,30.19,WSW,246,5.0,9.0,25,0.00,,,0.01,Wunderground v.1.15,2013-01-19 19:12:00,
2013-01-19 14:18:00,46.7,12.7,30.19,South,176,3.0,9.0,25,0.00,,,0.01,Wunderground v.1.15,2013-01-19 19:18:00,
2013-01-19 14:24:00,46.7,11.8,30.19,SW,226,5.0,12.0,24,0.00,,,0.01,Wunderground v.1.15,2013-01-19 19:24:00,
2013-01-19 14:30:00,46.4,12.4,30.18,SSW,203,5.0,9.0,25,0.00,,,0.01,Wunderground v.1.15,2013-01-19 19:30:00,
2013-01-19 14:37:00,45.9,12.0,30.18,WSW,250,5.0,9.0,25,0.00,,,0.01,Wunderground v.1.15,2013-01-19 19:37:00,
2013-01-19 14:42:00,45.6,14.3,30.18,SW,214,5.0,9.0,28,0.00,,,0.01,Wunderground v.1.15,2013-01-19 19:42:00,
2013-01-19 14:48:00,45.1,13.9,30.17,WSW,246,6.0,9.0,28,0.00,,,0.01,Wunderground v.1.15,2013-01-19 19:48:00,
2013-01-19 14:54:00,44.6,14.3,30.17,SW,222,7.0,11.0,29,0.00,,,0.01,Wunderground v.1.15,2013-01-19 19:54:00,
2013-01-19 15:00:00,44.3,14.8,30.17,West,262,8.0,12.0,30,0.00,,,0.01,Wunderground v.1.15,2013-01-19 20:00:00,
2013-01-19 15:06:00,44.7,15.9,30.17,SW,214,6.0,12.0,31,0.00,,,0.01,Wunderground v.1.15,2013-01-19 20:06:00,
2013-01-19 15:12:00,44.7,15.1,30.17,WNW,293,5.0,13.0,30,0.00,,,0.01,Wunderground v.1.15,2013-01-19 20:12:00,
2013-01-19 15:18:00,44.5,14.9,30.16,SSE,157,6.0,6.0,30,0.00,,,0.01,Wunderground v.1.15,2013-01-19 20:18:00,
2013-01-19 15:27:00,44.6,14.3,30.16,WSW,257,6.0,12.0,29,0.00,,,0.01,Wunderground v.1.15,2013-01-19 20:27:00,
2013-01-19 15:42:00,43.9,14.4,30.16,WSW,247,7.0,9.0,30,0.00,,,0.01,Wunderground v.1.15,2013-01-19 20:42:00,
2013-01-19 15:48:00,43.7,14.2,30.15,South,172,8.0,8.0,30,0.00,,,0.01,Wunderground v.1.15,2013-01-19 20:48:00,
2013-01-19 15:54:00,43.7,14.2,30.15,SW,226,8.0,10.0,30,0.00,,,0.01,Wunderground v.1.15,2013-01-19 20:54:00,
2013-01-19 16:00:00,43.5,16.3,30.15,SSE,152,6.0,9.0,33,0.00,,,0.01,Wunderground v.1.15,2013-01-19 21:00:00,
2013-01-19 16:08:00,43.2,15.3,30.14,South,184,7.0,7.0,32,0.00,,,0.01,Wunderground v.1.15,2013-01-19 21:08:00,
2013-01-19 16:14:00,42.7,19.4,30.14,SSE,163,7.0,10.0,39,0.00,,,0.01,Wunderground v.1.15,2013-01-19 21:14:00,
2013-01-19 16:20:00,42.3,19.7,30.14,South,191,7.0,9.0,40,0.00,,,0.01,Wunderground v.1.15,2013-01-19 21:20:00,
2013-01-19 16:26:00,42.0,18.2,30.13,WSW,243,6.0,10.0,38,0.00,,,0.01,Wunderground v.1.15,2013-01-19 21:26:00,
2013-01-19 16:32:00,41.7,20.3,30.14,SSW,210,5.0,9.0,42,0.00,,,0.01,Wunderground v.1.15,2013-01-19 21:32:00,
2013-01-19 16:37:00,41.4,22.7,30.14,SE,138,5.0,9.0,47,0.00,,,0.01,Wunderground v.1.15,2013-01-19 21:37:00,
2013-01-19 16:44:00,41.0,21.3,30.14,SSE,159,4.0,9.0,45,0.00,,,0.01,Wunderground v.1.15,2013-01-19 21:44:00,
2013-01-19 16:52:00,40.8,18.3,30.13,South,173,6.0,9.0,40,0.00,,,0.01,Wunderground v.1.15,2013-01-19 21:52:00,
2013-01-19 16:58:00,40.7,18.8,30.13,SW,235,6.0,6.0,41,0.00,,,0.01,Wunderground v.1.15,2013-01-19 21:58:00,
2013-01-19 17:04:00,40.4,19.6,30.13,SSE,152,5.0,9.0,43,0.00,,,0.01,Wunderground v.1.15,2013-01-19 22:04:00,
2013-01-19 17:10:00,40.1,19.4,30.13,SW,235,5.0,9.0,43,0.00,,,0.01,Wunderground v.1.15,2013-01-19 22:10:00,
2013-01-19 17:18:00,40.0,17.6,30.12,WSW,252,5.0,14.0,40,0.00,,,0.01,Wunderground v.1.15,2013-01-19 22:18:00,
2013-01-19 17:24:00,39.9,18.6,30.12,SE,146,5.0,14.0,42,0.00,,,0.01,Wunderground v.1.15,2013-01-19 22:24:00,
2013-01-19 17:30:00,39.6,18.9,30.12,South,190,4.0,11.0,43,0.00,,,0.01,Wunderground v.1.15,2013-01-19 22:30:00,
2013-01-19 17:36:00,39.2,20.1,30.12,SSW,204,5.0,11.0,46,0.00,,,0.01,Wunderground v.1.15,2013-01-19 22:36:00,
2013-01-19 17:42:00,38.7,22.6,30.12,South,169,5.0,9.0,52,0.00,,,0.01,Wunderground v.1.15,2013-01-19 22:42:00,
2013-01-19 17:48:00,37.6,25.0,30.12,SSE,164,5.0,9.0,60,0.00,,,0.01,Wunderground v.1.15,2013-01-19 22:48:00,
2013-01-19 17:53:00,37.2,25.4,30.11,West,263,6.0,9.0,62,0.00,,,0.01,Wunderground v.1.15,2013-01-19 22:53:00,
2013-01-19 18:00:00,36.6,25.6,30.11,West,262,6.0,9.0,64,0.00,,,0.01,Wunderground v.1.15,2013-01-19 23:00:00,
2013-01-19 18:06:00,36.2,25.9,30.11,South,191,5.0,9.0,66,0.00,,,0.01,Wunderground v.1.15,2013-01-19 23:06:00,
2013-01-19 18:12:00,36.2,25.6,30.11,South,179,5.0,9.0,65,0.00,,,0.01,Wunderground v.1.15,2013-01-19 23:12:00,
2013-01-19 18:18:00,36.5,25.5,30.11,SW,214,5.0,5.0,64,0.00,,,0.01,Wunderground v.1.15,2013-01-19 23:18:00,
2013-01-19 18:24:00,36.9,23.9,30.11,WSW,248,6.0,9.0,59,0.00,,,0.01,Wunderground v.1.15,2013-01-19 23:24:00,
2013-01-19 18:30:00,37.5,21.9,30.11,South,190,7.0,7.0,53,0.00,,,0.01,Wunderground v.1.15,2013-01-19 23:30:00,
2013-01-19 18:36:00,37.8,20.3,30.11,SSE,160,7.0,9.0,49,0.00,,,0.01,Wunderground v.1.15,2013-01-19 23:36:00,
2013-01-19 18:41:00,38.1,19.6,30.11,WSW,256,7.0,10.0,47,0.00,,,0.01,Wunderground v.1.15,2013-01-19 23:41:00,
2013-01-19 18:49:00,38.5,20.0,30.10,WSW,240,8.0,10.0,47,0.00,,,0.01,Wunderground v.1.15,2013-01-19 23:49:00,
2013-01-19 18:56:00,38.4,20.4,30.11,South,190,8.0,10.0,48,0.00,,,0.01,Wunderground v.1.15,2013-01-19 23:56:00,
2013-01-19 19:02:00,38.3,19.3,30.10,WSW,244,7.0,9.0,46,0.00,,,0.01,Wunderground v.1.15,2013-01-20 00:02:00,
2013-01-19 19:08:00,38.5,20.0,30.10,SSW,201,7.0,7.0,47,0.00,,,0.01,Wunderground v.1.15,2013-01-20 00:08:00,
2013-01-19 19:16:00,38.3,19.3,30.10,NW,307,8.0,10.0,46,0.00,,,0.01,Wunderground v.1.15,2013-01-20 00:16:00,
2013-01-19 19:22:00,38.4,18.9,30.10,WSW,239,7.0,9.0,45,0.00,,,0.01,Wunderground v.1.15,2013-01-20 00:22:00,
2013-01-19 19:28:00,38.4,18.9,30.10,SSW,204,7.0,7.0,45,0.00,,,0.01,Wunderground v.1.15,2013-01-20 00:28:00,
2013-01-19 19:34:00,38.3,19.8,30.09,SW,225,8.0,13.0,47,0.00,,,0.01,Wunderground v.1.15,2013-01-20 00:34:00,
2013-01-19 19:39:00,38.3,19.8,30.10,WSW,238,8.0,13.0,47,0.00,,,0.01,Wunderground v.1.15,2013-01-20 00:39:00,
2013-01-19 19:46:00,38.1,20.1,30.09,SSW,210,8.0,10.0,48,0.00,,,0.01,Wunderground v.1.15,2013-01-20 00:46:00,
2013-01-19 19:52:00,38.5,19.5,30.09,West,260,10.0,16.0,46,0.00,,,0.01,Wunderground v.1.15,2013-01-20 00:52:00,
2013-01-19 19:58:00,38.1,20.6,30.08,SSW,200,9.0,9.0,49,0.00,,,0.01,Wunderground v.1.15,2013-01-20 00:58:00,
2013-01-19 20:04:00,38.1,19.6,30.08,WSW,240,9.0,13.0,47,0.00,,,0.01,Wunderground v.1.15,2013-01-20 01:04:00,
2013-01-19 20:10:00,38.2,19.2,30.08,South,184,10.0,12.0,46,0.00,,,0.01,Wunderground v.1.15,2013-01-20 01:10:00,
2013-01-19 20:15:00,38.3,18.8,30.08,WSW,243,10.0,14.0,45,0.00,,,0.01,Wunderground v.1.15,2013-01-20 01:15:00,
2013-01-19 20:22:00,38.4,18.4,30.08,SSW,211,10.0,13.0,44,0.00,,,0.01,Wunderground v.1.15,2013-01-20 01:22:00,
2013-01-19 20:27:00,38.3,18.3,30.08,West,278,9.0,13.0,44,0.00,,,0.01,Wunderground v.1.15,2013-01-20 01:27:00,
2013-01-19 20:34:00,39.1,16.2,30.06,West,276,12.0,16.0,39,0.00,,,0.01,Wunderground v.1.15,2013-01-20 01:34:00,
2013-01-19 20:40:00,39.1,15.6,30.07,West,274,12.0,18.0,38,0.00,,,0.01,Wunderground v.1.15,2013-01-20 01:40:00,
2013-01-19 20:45:00,39.2,15.7,30.06,SW,235,12.0,18.0,38,0.00,,,0.01,Wunderground v.1.15,2013-01-20 01:45:00,
2013-01-19 20:52:00,39.3,15.8,30.06,WSW,249,12.0,21.0,38,0.00,,,0.01,Wunderground v.1.15,2013-01-20 01:52:00,
2013-01-19 20:57:00,39.3,16.4,30.07,WSW,248,12.0,21.0,39,0.00,,,0.01,Wunderground v.1.15,2013-01-20 01:57:00,
2013-01-19 21:04:00,39.4,15.3,30.06,WSW,250,12.0,17.0,37,0.00,,,0.01,Wunderground v.1.15,2013-01-20 02:04:00,
2013-01-19 21:10:00,39.5,15.3,30.05,WSW,246,13.0,27.0,37,0.00,,,0.01,Wunderground v.1.15,2013-01-20 02:10:00,
2013-01-19 21:16:00,39.8,13.0,30.06,SW,233,13.0,27.0,33,0.00,,,0.01,Wunderground v.1.15,2013-01-20 02:16:00,
2013-01-19 21:22:00,40.4,12.1,30.05,SW,225,14.0,25.0,31,0.00,,,0.01,Wunderground v.1.15,2013-01-20 02:22:00,
2013-01-19 21:28:00,40.2,11.2,30.05,WSW,244,14.0,14.0,30,0.00,,,0.01,Wunderground v.1.15,2013-01-20 02:28:00,
2013-01-19 21:34:00,40.6,10.0,30.05,WSW,249,14.0,23.0,28,0.00,,,0.01,Wunderground v.1.15,2013-01-20 02:34:00,
2013-01-19 21:40:00,40.5,9.9,30.05,WSW,240,15.0,15.0,28,0.00,,,0.01,Wunderground v.1.15,2013-01-20 02:40:00,
2013-01-19 21:46:00,40.6,10.0,30.04,West,281,14.0,15.0,28,0.00,,,0.01,Wunderground v.1.15,2013-01-20 02:46:00,
2013-01-19 21:52:00,40.3,10.5,30.05,WSW,256,14.0,15.0,29,0.00,,,0.01,Wunderground v.1.15,2013-01-20 02:52:00,
2013-01-19 21:58:00,40.5,9.9,30.04,West,262,13.0,13.0,28,0.00,,,0.01,Wunderground v.1.15,2013-01-20 02:58:00,
2013-01-19 22:06:00,40.4,10.6,30.04,WSW,240,14.0,22.0,29,0.00,,,0.01,Wunderground v.1.15,2013-01-20 03:06:00,
2013-01-19 22:12:00,40.3,12.0,30.04,SW,235,13.0,15.0,31,0.00,,,0.01,Wunderground v.1.15,2013-01-20 03:12:00,
2013-01-19 22:18:00,40.4,12.1,30.03,WSW,243,12.0,14.0,31,0.00,,,0.01,Wunderground v.1.15,2013-01-20 03:18:00,
2013-01-19 22:24:00,40.0,13.2,30.03,West,264,12.0,16.0,33,0.00,,,0.01,Wunderground v.1.15,2013-01-20 03:24:00,
2013-01-19 22:30:00,40.3,12.7,30.02,SSW,212,12.0,12.0,32,0.00,,,0.01,Wunderground v.1.15,2013-01-20 03:30:00,
2013-01-19 22:36:00,40.3,12.7,30.02,SW,214,12.0,15.0,32,0.00,,,0.01,Wunderground v.1.15,2013-01-20 03:36:00,
2013-01-19 22:44:00,40.3,13.4,30.02,West,278,12.0,17.0,33,0.00,,,0.01,Wunderground v.1.15,2013-01-20 03:44:00,
2013-01-19 22:49:00,40.1,13.3,30.01,SW,217,11.0,17.0,33,0.00,,,0.01,Wunderground v.1.15,2013-01-20 03:49:00,
2013-01-19 22:56:00,40.6,12.3,30.01,WSW,250,11.0,17.0,31,0.00,,,0.01,Wunderground v.1.15,2013-01-20 03:56:00,
2013-01-19 23:02:00,40.4,13.5,30.00,West,280,11.0,12.0,33,0.00,,,0.01,Wunderground v.1.15,2013-01-20 04:02:00,
2013-01-19 23:08:00,40.4,13.5,30.00,WSW,245,11.0,11.0,33,0.00,,,0.01,Wunderground v.1.15,2013-01-20 04:08:00,
2013-01-19 23:14:00,40.3,14.1,30.00,SW,230,13.0,15.0,34,0.00,,,0.01,Wunderground v.1.15,2013-01-20 04:14:00,
2013-01-19 23:19:00,40.3,13.4,30.00,WSW,255,13.0,16.0,33,0.00,,,0.01,Wunderground v.1.15,2013-01-20 04:19:00,
2013-01-19 23:26:00,40.4,13.5,29.99,West,267,13.0,20.0,33,0.00,,,0.01,Wunderground v.1.15,2013-01-20 04:26:00,
2013-01-19 23:33:00,40.3,14.1,29.99,NE,36,13.0,19.0,34,0.00,,,0.01,Wunderground v.1.15,2013-01-20 04:33:00,
2013-01-19 23:40:00,40.4,14.2,29.98,WSW,253,13.0,14.0,34,0.00,,,0.01,Wunderground v.1.15,2013-01-20 04:40:00,
2013-01-19 23:46:00,40.4,14.2,29.98,WSW,248,14.0,21.0,34,0.00,,,0.01,Wunderground v.1.15,2013-01-20 04:46:00,
2013-01-19 23:54:00,40.2,14.0,29.96,WSW,246,14.0,15.0,34,0.00,,,0.01,Wunderground v.1.15,2013-01-20 04:54:00,
2013-01-19 23:59:00,40.2,14.7,29.96,West,277,14.0,15.0,35,0.00,,,0.01,Wunderground v.1.15,2013-01-20 04:59:00,